Weather in Petelino

Russia / Tula Oblast     54°07′38″N   37°42′14″E
В апреле 2022 года жителям России запретили посещать сайт meteo.paraplan.net по решению Генеральной прокуратуры. Аудитория сайта уменьшилась в 10 раз. Владельцы сайта не видят смысла в поддержке погодного сервера в таких условиях. Сайт будет закрыт в октябре.
temp.,
°C
wind,
m/s
gust,
m/s
humid.,
%
clouds,
%
prec.,
mm/h
press.,
hPa
HPBL,
m
3 october, mon
mon300:00+15ese61492100 1.5 996835
03:00+15se81693100 2.3 9941049
06:00+15se81594100 4.2 992836
09:00+13ssw61194100 11.4 992654
12:00+10ssw61282100 0.7 9961141
15:00+8s81479100 0.9 9981341
18:00+8s91683100 0.4 10001623
21:00+9s81785100 0.7 10021606
4 october, tue
tue400:00+10s91582100 0.1 10041069
03:00+9s91579100 0.1 10051217
06:00+8sse81582100 0.0 1006928
09:00+9sse91676100 0.0 10071137
12:00+10s81581100 0.4 10081599
15:00+8s61285100 3.6 10101021
18:00+8s61184100 0.5 10101206
21:00+8s6118699 2.1 10101049
5 october, wed
wed500:00+8ssw71287100 0.4 10101281
03:00+7ssw3793100 1.8 10111080
06:00+7sw3791100 1.7 1011810
09:00+6wsw4690100 2.7 10121062
12:00+8wsw4676100 0.3 1013905
15:00+7w4780100 0.6 10151070
18:00+6wsw4884100 0.1 1016493
21:00+6w498786 0.1 1017535
6 october, thu
thu600:00+6wsw488998 0.0 1018412
03:00+6w4893100 0.1 1018357
06:00+7sw3895100 0.3 1018413
09:00+8wsw41096100 0.7 1017430
12:00+9wsw51195100 0.4 1017504
15:00+9wsw51293100 1.1 1016500
18:00+10wsw5129167 0.1 1017403
21:00+9wsw5149385 0.1 1016389
7 october, fri
fri700:00+9w5129530 0.0 1017337
03:00+11wnw5119389 0.0 1018586
06:00+8wnw4119633 0.0 1020363
09:00+9w5109054 0.0 1021422
12:00+12wnw686911 0.0 1022889
15:00+12nw687299 0.0 10221057
18:00+9w5108130 0.0 1024551
21:00+8w410820 0.0 1024352